TimeAKST,TemperatureF,Dew PointF,Humidity,Sea Level PressureIn,VisibilityMPH,Wind Direction,Wind SpeedMPH,Gust SpeedMPH,PrecipitationIn,Events,Conditions,WindDirDegrees,DateUTC
12:53 AM,-0.9,-5.1,83,29.78,10.0,NE,4.6,-,N/A,,Clear,50,2012-11-24 09:53:00
1:53 AM,-2.0,-6.0,83,29.78,10.0,ENE,3.5,-,N/A,,Clear,60,2012-11-24 10:53:00
3:53 AM,-2.0,-7.1,79,29.79,10.0,Calm,Calm,-,N/A,,Clear,0,2012-11-24 12:53:00
4:53 AM,-4.0,-8.0,83,29.81,10.0,ENE,3.5,-,N/A,,Clear,60,2012-11-24 13:53:00
5:53 AM,-4.0,-8.0,83,29.81,10.0,ENE,3.5,-,N/A,,Clear,60,2012-11-24 14:53:00
6:53 AM,-2.9,-7.1,82,29.81,10.0,Calm,Calm,-,N/A,,Clear,0,2012-11-24 15:53:00
7:53 AM,-6.0,-9.9,83,29.82,10.0,North,4.6,-,N/A,,Clear,350,2012-11-24 16:53:00
8:53 AM,-5.1,-9.9,80,29.83,10.0,Calm,Calm,-,N/A,,Clear,0,2012-11-24 17:53:00
9:53 AM,-5.1,-11.0,76,29.84,10.0,ENE,3.5,-,N/A,,Clear,70,2012-11-24 18:53:00
10:53 AM,-0.0,-5.1,79,29.86,10.0,Calm,Calm,-,N/A,,Clear,0,2012-11-24 19:53:00
11:53 AM,5.0,-0.0,80,29.86,10.0,Calm,Calm,-,N/A,,Clear,0,2012-11-24 20:53:00
12:53 PM,12.0,5.0,73,29.88,10.0,Calm,Calm,-,N/A,,Clear,0,2012-11-24 21:53:00
1:53 PM,17.1,8.1,68,29.88,10.0,North,3.5,-,N/A,,Clear,10,2012-11-24 22:53:00
2:53 PM,18.0,8.1,65,29.88,10.0,NNE,4.6,-,N/A,,Clear,20,2012-11-24 23:53:00
3:53 PM,15.1,7.0,70,29.89,10.0,NNE,8.1,-,N/A,,Clear,30,2012-11-25 00:53:00
4:53 PM,15.1,10.0,80,29.91,10.0,NNE,8.1,-,N/A,,Clear,20,2012-11-25 01:53:00
5:53 PM,10.0,7.0,87,29.93,10.0,NNE,5.8,-,N/A,,Clear,30,2012-11-25 02:53:00
6:53 PM,7.0,3.9,87,29.94,10.0,Calm,Calm,-,N/A,,Clear,0,2012-11-25 03:53:00
7:53 PM,5.0,3.0,92,29.96,10.0,NNW,5.8,-,N/A,,Clear,340,2012-11-25 04:53:00
8:53 PM,1.9,1.0,96,29.98,10.0,North,3.5,-,N/A,,Clear,360,2012-11-25 05:53:00
9:53 PM,3.0,-0.0,87,30.01,10.0,NNW,5.8,-,N/A,,Clear,330,2012-11-25 06:53:00
10:53 PM,3.9,-0.0,84,30.02,10.0,Calm,Calm,-,N/A,,Clear,0,2012-11-25 07:53:00
11:53 PM,-0.9,-5.1,83,30.04,10.0,NE,3.5,-,N/A,,Clear,50,2012-11-25 08:53:00